Tracking 31027 objects as of 19-Jul-2025
HD Live streaming from Space Station
objects crossing your sky now

STARLINK-5079

Track STARLINK-5079 now!
10-day predictions
STARLINK-5079 is classified as:


NORAD ID: 53999
Int'l Code: 2022-125AM
Perigee: 546.0 km
Apogee: 547.8 km
Inclination: 53.2 °
Period: 95.4 minutes
Semi major axis: 6917 km
RCS: Unknown
Launch date: October 5, 2022
Source: United States (US)
Launch site: AIR FORCE WESTERN TEST RANGE (AFWTR)
Your satellite tracking list
Your tracking list is empty




NASA's NSSDC Master Catalog

Two Line Element Set (TLE):
1 53999U 22125AM  25199.19952380 -.00000013  00000-0  17265-4 0  9990
2 53999  53.2171 186.7087 0001309  74.6961 285.4176 15.08834938154135
Source of the keplerian elements: AFSPC